Location: Oshawa
(43.9000°N, 78.8670°W)
Time: 19:50:21
(UTC-04:00)

Altair - Visible Passes

Search period start: 22 July 2014 00:00
Search period end: 01 August 2014 00:00
Orbit: 1502 x 1682 km, 47.2° (Epoch: 21 July)

Date Brightness Start Highest point End Pass type
(mag) Time Alt. Az. Time Alt. Az. Time Alt. Az.
22 Jul 9.2 04:19:09 10° SSE 04:24:51 18° SE 04:30:36 10° E visible
23 Jul 9.2 03:54:47 10° SSE 03:59:53 16° SE 04:05:01 10° E visible
24 Jul 9.2 03:30:33 10° SSE 03:34:55 14° ESE 03:39:18 10° E visible
25 Jul 9.2 03:06:35 10° SE 03:09:58 13° ESE 03:13:22 10° E visible
25 Jul 8.0 05:04:10 10° SSW 05:12:47 48° SE 05:21:34 10° ENE visible
26 Jul 9.2 02:43:11 10° SE 02:45:01 11° ESE 02:46:51 10° ESE visible
26 Jul 8.1 04:39:47 12° SSW 04:47:44 45° SE 04:56:22 10° ENE visible
27 Jul 8.1 04:16:02 16° SSW 04:22:42 41° SE 04:31:09 10° ENE visible
28 Jul 8.2 03:52:15 20° S 03:57:41 38° SE 04:05:56 10° ENE visible
29 Jul 8.2 03:28:25 24° S 03:32:39 35° SE 03:40:42 10° ENE visible
29 Jul 7.6 05:27:21 10° WSW 05:36:31 84° SSE 05:45:55 10° ENE visible
30 Jul 8.3 03:04:33 26° SSE 03:07:39 32° SE 03:15:27 10° ENE visible
30 Jul 7.5 05:02:34 11° WSW 05:11:24 81° SSE 05:20:45 10° ENE visible
31 Jul 8.3 02:40:39 27° SSE 02:42:38 30° SE 02:50:11 10° ENE visible
31 Jul 7.5 04:38:39 16° SW 04:46:18 77° SSE 04:55:35 10° ENE visible
